Tracking 19909 objects as of 21-Oct-2019
HD Live streaming from Space Station
objects crossing your sky now

IRIDIUM 33 DEB

Track IRIDIUM 33 DEB now!
10-day predictions


NORAD ID: 36490
Int'l Code: 1997-051WG
Perigee: 742.3 km
Apogee: 747.2 km
Inclination: 86.4 °
Period: 99.6 minutes
Semi major axis: 7115 km
RCS: 0.0086 m2 (small)
Launch date: September 14, 1997
Source: United States (US)
Launch site: TYURATAM MISSILE AND SPACE COMPLEX (TTMTR)

Note: This is SATELLITE DEBRIS
aabbcc
Your satellite tracking list
Your tracking list is empty




NASA's NSSDC Master Catalog

Two Line Element Set (TLE):
1 36490U 97051WG  19293.66440473  .00000671  00000-0  18157-3 0  9991
2 36490  86.3757 264.8086 0003480  58.0103 302.1438 14.46344293538643
Source of the keplerian elements: AFSPC